星链-30826 (STARLINK-30826 )

导读

STARLINK-30826是美国太空探索技术公司(SpaceX)星链互联网卫星星座中的一员,于2023年10月30日发射升空。星链项目旨在构建全球卫星互联网,该卫星入轨后,将和其他星链卫星协同工作,为全球范围,尤其是偏远地区提供高速低延迟的宽带网络服务。

基本信息
目录编号:
58188
目录名称:
STARLINK-30826
国际标识:
2023-167P
轨道中心:
EARTH
卫星名称:
星链-30826
卫星全名:
星链-30826 (STARLINK-30826 )
卫星状态:
在轨 (已飞行962 天)
发射日期:
2023-10-30 UTC
国别 :
美国 (US)
星等 :
--
轨道信息
数据来源 国际轨道数据 AOE轨道数据
星历时间 2026-06-17T09:35:26+0800
1天前
查看轨道信息
2026-06-16T06:00:00+0800
2天前
查看轨道信息
半长轴 6861.194km 6861.197km
偏心率 0.0001133 0.000004
轨道倾角 43.001° 43.001°
近地点辐角 278.123° 166.368°
升交点赤经 302.155° 308.651°
平近点角 81.949° 344.276°
近地点 482.279km 483.032km
远地点 483.835km 483.088km
周期 94.267分钟 94.267分钟
每日圈数 15.275776 15.275765
详细信息
固有亮度:
5
最大亮度:
0.3
卫星平台:
Starlink v2.0 mini
覆盖范围:
全球
运营商:
太空探索技术公司
运营商所在国:
美国
制造商(研发单位):
太空探索技术公司
制造商所在国:
美国
使用方式:
暂无
卫星简介
星链(Starlink)计划是由太空探索技术公司(SpaceX)提出的一个巨型低轨卫星互联网星座项目,计划在2019年至2024年间在太空搭建由约1.2万颗卫星组成的“星链”网络,其中1584颗将部署在地球上空550千米处的近地轨道,并从2020年开始工作。该卫星仍在工作。
2D轨道图
3D轨道图
轨道高度分析图
轨道倾角分析图
轨道综合分析图
查看轨道综合分析图